Time,TemperatureF,DewpointF,PressureIn,WindDirection,WindDirectionDegrees,WindSpeedMPH,WindSpeedGustMPH,Humidity,HourlyPrecipIn,Conditions,Clouds,dailyrainin,SoftwareType,DateUTC
2014-12-27 00:01:00,25.9,24.0,30.11,West,270,0.0,0.0,94,0.00,,,0.00,Rainwise IP-100,2014-12-27 05:01:00,
2014-12-27 00:06:00,25.6,24.0,30.11,West,270,0.0,0.0,94,0.00,,,0.00,Rainwise IP-100,2014-12-27 05:06:00,
2014-12-27 00:11:00,25.7,24.0,30.11,West,270,0.0,0.0,94,0.00,,,0.00,Rainwise IP-100,2014-12-27 05:11:00,
2014-12-27 00:16:00,25.7,24.0,30.10,West,270,0.0,0.0,94,0.00,,,0.00,Rainwise IP-100,2014-12-27 05:16:00,
2014-12-27 00:21:00,25.7,24.0,30.10,West,270,0.0,0.0,94,0.00,,,0.00,Rainwise IP-100,2014-12-27 05:21:00,
2014-12-27 00:26:00,25.6,24.0,30.10,West,270,0.0,0.0,94,0.00,,,0.00,Rainwise IP-100,2014-12-27 05:26:00,
2014-12-27 00:31:00,25.5,24.0,30.10,West,270,0.0,0.0,94,0.00,,,0.00,Rainwise IP-100,2014-12-27 05:31:00,
2014-12-27 00:37:00,25.6,24.0,30.10,West,270,0.0,0.0,94,0.00,,,0.00,Rainwise IP-100,2014-12-27 05:37:00,
2014-12-27 00:42:00,25.6,24.0,30.10,NE,45,0.0,0.0,94,0.00,,,0.00,Rainwise IP-100,2014-12-27 05:42:00,
2014-12-27 00:47:00,25.7,24.0,30.11,NE,45,0.0,0.0,94,0.00,,,0.00,Rainwise IP-100,2014-12-27 05:47:00,
2014-12-27 00:52:00,25.7,24.0,30.11,NE,45,0.0,0.0,94,0.00,,,0.00,Rainwise IP-100,2014-12-27 05:52:00,
2014-12-27 00:57:00,25.7,24.0,30.11,NE,45,0.0,0.0,94,0.00,,,0.00,Rainwise IP-100,2014-12-27 05:57:00,
2014-12-27 01:02:00,25.7,24.0,30.11,NE,45,0.0,1.0,94,0.00,,,0.00,Rainwise IP-100,2014-12-27 06:02:00,
2014-12-27 01:07:00,25.7,24.0,30.11,NE,45,0.0,0.0,94,0.00,,,0.00,Rainwise IP-100,2014-12-27 06:07:00,
2014-12-27 01:13:00,25.6,24.0,30.11,NE,45,0.0,1.0,94,0.00,,,0.00,Rainwise IP-100,2014-12-27 06:13:00,
2014-12-27 01:18:00,25.5,24.0,30.11,NE,45,0.0,0.0,94,0.00,,,0.00,Rainwise IP-100,2014-12-27 06:18:00,
2014-12-27 01:23:00,25.4,24.0,30.11,NE,45,0.0,0.0,94,0.00,,,0.00,Rainwise IP-100,2014-12-27 06:23:00,
2014-12-27 01:28:00,25.4,24.0,30.11,NE,45,0.0,0.0,94,0.00,,,0.00,Rainwise IP-100,2014-12-27 06:28:00,
2014-12-27 01:33:00,25.5,24.0,30.10,NE,45,0.0,0.0,94,0.00,,,0.00,Rainwise IP-100,2014-12-27 06:33:00,
2014-12-27 01:38:00,25.5,24.0,30.10,NE,45,0.0,0.0,94,0.00,,,0.00,Rainwise IP-100,2014-12-27 06:38:00,
2014-12-27 01:43:00,25.5,24.0,30.11,NE,45,0.0,0.0,94,0.00,,,0.00,Rainwise IP-100,2014-12-27 06:43:00,
2014-12-27 01:48:00,25.6,24.0,30.11,NE,45,0.0,0.0,94,0.00,,,0.00,Rainwise IP-100,2014-12-27 06:48:00,
2014-12-27 01:54:00,25.6,24.0,30.11,NE,45,0.0,0.0,94,0.00,,,0.00,Rainwise IP-100,2014-12-27 06:54:00,
2014-12-27 01:59:00,25.5,24.0,30.11,NE,45,0.0,0.0,94,0.00,,,0.00,Rainwise IP-100,2014-12-27 06:59:00,
2014-12-27 02:04:00,25.6,24.0,30.11,NE,45,0.0,0.0,94,0.00,,,0.00,Rainwise IP-100,2014-12-27 07:04:00,
2014-12-27 02:09:00,25.7,24.0,30.11,NE,45,0.0,0.0,94,0.00,,,0.00,Rainwise IP-100,2014-12-27 07:09:00,
2014-12-27 02:14:00,25.7,24.0,30.11,NE,45,0.0,0.0,94,0.00,,,0.00,Rainwise IP-100,2014-12-27 07:14:00,
2014-12-27 02:19:00,25.8,24.0,30.12,NE,45,0.0,0.0,94,0.00,,,0.00,Rainwise IP-100,2014-12-27 07:19:00,
2014-12-27 02:24:00,25.9,24.0,30.12,NE,45,0.0,0.0,94,0.00,,,0.00,Rainwise IP-100,2014-12-27 07:24:00,
2014-12-27 02:30:00,25.9,24.0,30.12,NE,45,0.0,0.0,94,0.00,,,0.00,Rainwise IP-100,2014-12-27 07:30:00,
2014-12-27 02:35:00,25.9,24.0,30.12,NE,45,0.0,0.0,94,0.00,,,0.00,Rainwise IP-100,2014-12-27 07:35:00,
2014-12-27 02:40:00,25.9,24.0,30.12,NE,45,0.0,0.0,94,0.00,,,0.00,Rainwise IP-100,2014-12-27 07:40:00,
2014-12-27 02:45:00,26.2,24.0,30.12,NE,45,0.0,0.0,94,0.00,,,0.00,Rainwise IP-100,2014-12-27 07:45:00,
2014-12-27 02:50:00,26.3,24.0,30.13,NE,45,0.0,0.0,94,0.00,,,0.00,Rainwise IP-100,2014-12-27 07:50:00,
2014-12-27 02:55:00,26.7,26.0,30.12,NE,45,0.0,0.0,94,0.00,,,0.00,Rainwise IP-100,2014-12-27 07:55:00,
2014-12-27 03:00:00,26.9,26.0,30.12,NE,45,0.0,0.0,94,0.00,,,0.00,Rainwise IP-100,2014-12-27 08:00:00,
2014-12-27 03:05:00,27.1,26.0,30.12,NE,45,0.0,0.0,94,0.00,,,0.00,Rainwise IP-100,2014-12-27 08:05:00,
2014-12-27 03:11:00,27.2,26.0,30.12,NE,45,0.0,0.0,94,0.00,,,0.00,Rainwise IP-100,2014-12-27 08:11:00,
2014-12-27 03:16:00,27.4,26.0,30.12,NE,45,0.0,0.0,94,0.00,,,0.00,Rainwise IP-100,2014-12-27 08:16:00,
2014-12-27 03:21:00,27.7,26.0,30.11,NE,45,0.0,2.0,94,0.00,,,0.00,Rainwise IP-100,2014-12-27 08:21:00,
2014-12-27 03:26:00,27.7,26.0,30.11,NE,45,0.0,0.0,94,0.00,,,0.00,Rainwise IP-100,2014-12-27 08:26:00,
2014-12-27 03:31:00,27.8,26.0,30.11,NE,45,0.0,0.0,94,0.00,,,0.00,Rainwise IP-100,2014-12-27 08:31:00,
2014-12-27 03:36:00,27.8,26.0,30.12,NE,45,0.0,0.0,94,0.00,,,0.00,Rainwise IP-100,2014-12-27 08:36:00,
2014-12-27 03:41:00,27.8,26.0,30.12,NE,45,0.0,0.0,94,0.00,,,0.00,Rainwise IP-100,2014-12-27 08:41:00,
2014-12-27 03:47:00,27.9,26.0,30.12,NE,45,0.0,2.0,94,0.00,,,0.00,Rainwise IP-100,2014-12-27 08:47:00,
2014-12-27 03:52:00,28.2,26.0,30.12,NE,45,0.0,2.0,94,0.00,,,0.00,Rainwise IP-100,2014-12-27 08:52:00,
2014-12-27 03:57:00,28.9,28.0,30.12,NW,315,0.0,2.0,94,0.00,,,0.00,Rainwise IP-100,2014-12-27 08:57:00,
2014-12-27 04:02:00,29.8,29.0,30.12,NW,315,0.0,1.0,94,0.00,,,0.00,Rainwise IP-100,2014-12-27 09:02:00,
2014-12-27 04:07:00,30.3,29.0,30.12,NW,315,0.0,2.0,94,0.00,,,0.00,Rainwise IP-100,2014-12-27 09:07:00,
2014-12-27 04:12:00,30.7,29.0,30.12,NW,315,0.0,1.0,94,0.00,,,0.00,Rainwise IP-100,2014-12-27 09:12:00,
2014-12-27 04:17:00,30.8,29.0,30.13,NW,315,0.0,2.0,94,0.00,,,0.00,Rainwise IP-100,2014-12-27 09:17:00,
2014-12-27 04:22:00,31.0,29.0,30.13,NW,315,0.0,0.0,95,0.00,,,0.00,Rainwise IP-100,2014-12-27 09:22:00,
2014-12-27 04:28:00,31.3,29.0,30.13,NW,315,0.0,1.0,95,0.00,,,0.00,Rainwise IP-100,2014-12-27 09:28:00,
2014-12-27 04:33:00,31.6,31.0,30.13,WSW,247,2.0,2.0,95,0.00,,,0.00,Rainwise IP-100,2014-12-27 09:33:00,
2014-12-27 04:38:00,31.9,31.0,30.13,WSW,247,0.0,2.0,95,0.00,,,0.00,Rainwise IP-100,2014-12-27 09:38:00,
2014-12-27 04:43:00,31.9,31.0,30.12,WSW,247,0.0,1.0,95,0.00,,,0.00,Rainwise IP-100,2014-12-27 09:43:00,
2014-12-27 04:48:00,32.1,31.0,30.12,West,270,1.0,0.0,95,0.00,,,0.00,Rainwise IP-100,2014-12-27 09:48:00,
2014-12-27 04:53:00,32.3,31.0,30.13,West,270,2.0,2.0,95,0.00,,,0.00,Rainwise IP-100,2014-12-27 09:53:00,
2014-12-27 04:58:00,32.4,31.0,30.13,West,270,1.0,2.0,95,0.00,,,0.00,Rainwise IP-100,2014-12-27 09:58:00,
2014-12-27 05:04:00,32.5,32.0,30.13,West,270,0.0,2.0,95,0.00,,,0.00,Rainwise IP-100,2014-12-27 10:04:00,
2014-12-27 05:09:00,32.6,32.0,30.13,West,270,0.0,1.0,95,0.00,,,0.00,Rainwise IP-100,2014-12-27 10:09:00,
2014-12-27 05:14:00,32.7,32.0,30.13,West,270,0.0,0.0,95,0.00,,,0.00,Rainwise IP-100,2014-12-27 10:14:00,
2014-12-27 05:19:00,32.8,32.0,30.13,West,270,0.0,0.0,95,0.00,,,0.00,Rainwise IP-100,2014-12-27 10:19:00,
2014-12-27 05:24:00,32.9,32.0,30.14,West,270,0.0,0.0,95,0.00,,,0.00,Rainwise IP-100,2014-12-27 10:24:00,
2014-12-27 05:29:00,32.9,32.0,30.13,West,270,0.0,0.0,95,0.00,,,0.00,Rainwise IP-100,2014-12-27 10:29:00,
2014-12-27 05:34:00,32.9,32.0,30.14,West,270,0.0,0.0,95,0.00,,,0.00,Rainwise IP-100,2014-12-27 10:34:00,
2014-12-27 05:39:00,32.9,32.0,30.14,West,270,0.0,0.0,95,0.00,,,0.00,Rainwise IP-100,2014-12-27 10:39:00,
2014-12-27 05:45:00,33.3,32.0,30.14,West,270,1.0,2.0,94,0.00,,,0.00,Rainwise IP-100,2014-12-27 10:45:00,
2014-12-27 05:50:00,33.8,32.0,30.14,WNW,292,1.0,2.0,92,0.00,,,0.00,Rainwise IP-100,2014-12-27 10:50:00,
2014-12-27 05:55:00,34.1,32.0,30.14,WNW,292,0.0,2.0,92,0.00,,,0.00,Rainwise IP-100,2014-12-27 10:55:00,
2014-12-27 06:00:00,34.2,32.0,30.14,WNW,292,0.0,0.0,92,0.00,,,0.00,Rainwise IP-100,2014-12-27 11:00:00,
2014-12-27 06:05:00,34.2,33.0,30.15,WNW,292,0.0,0.0,93,0.00,,,0.00,Rainwise IP-100,2014-12-27 11:05:00,
2014-12-27 06:10:00,33.9,33.0,30.15,WNW,292,0.0,0.0,94,0.00,,,0.00,Rainwise IP-100,2014-12-27 11:10:00,
2014-12-27 06:15:00,33.7,33.0,30.16,WNW,292,0.0,0.0,95,0.00,,,0.00,Rainwise IP-100,2014-12-27 11:15:00,
2014-12-27 06:21:00,33.6,33.0,30.16,WNW,292,0.0,0.0,95,0.00,,,0.00,Rainwise IP-100,2014-12-27 11:21:00,
2014-12-27 06:26:00,33.4,32.0,30.16,WNW,292,0.0,0.0,95,0.00,,,0.00,Rainwise IP-100,2014-12-27 11:26:00,
2014-12-27 06:31:00,33.4,32.0,30.17,WNW,292,0.0,0.0,95,0.00,,,0.00,Rainwise IP-100,2014-12-27 11:31:00,
2014-12-27 06:36:00,33.4,32.0,30.17,WNW,292,0.0,0.0,95,0.00,,,0.00,Rainwise IP-100,2014-12-27 11:36:00,
2014-12-27 06:41:00,33.3,32.0,30.17,WNW,292,0.0,0.0,95,0.00,,,0.00,Rainwise IP-100,2014-12-27 11:41:00,
2014-12-27 06:46:00,33.3,32.0,30.17,WNW,292,0.0,0.0,95,0.00,,,0.00,Rainwise IP-100,2014-12-27 11:46:00,
2014-12-27 06:51:00,33.3,32.0,30.17,North,360,0.0,0.0,95,0.00,,,0.00,Rainwise IP-100,2014-12-27 11:51:00,
2014-12-27 06:56:00,33.6,33.0,30.17,WNW,292,1.0,0.0,95,0.00,,,0.00,Rainwise IP-100,2014-12-27 11:56:00,
2014-12-27 07:02:00,34.1,33.0,30.17,WNW,292,0.0,2.0,93,0.00,,,0.00,Rainwise IP-100,2014-12-27 12:02:00,
2014-12-27 07:07:00,34.5,32.0,30.17,WNW,292,2.0,2.0,92,0.00,,,0.00,Rainwise IP-100,2014-12-27 12:07:00,
2014-12-27 07:12:00,34.8,32.0,30.17,West,270,0.0,2.0,90,0.00,,,0.00,Rainwise IP-100,2014-12-27 12:12:00,
2014-12-27 07:17:00,35.0,32.0,30.17,West,270,1.0,2.0,89,0.00,,,0.00,Rainwise IP-100,2014-12-27 12:17:00,
2014-12-27 07:22:00,35.1,32.0,30.17,West,270,0.0,2.0,90,0.00,,,0.00,Rainwise IP-100,2014-12-27 12:22:00,
2014-12-27 07:27:00,35.1,32.0,30.17,WNW,292,1.0,2.0,89,0.00,,,0.00,Rainwise IP-100,2014-12-27 12:27:00,
2014-12-27 07:32:00,35.2,32.0,30.17,SW,225,0.0,2.0,89,0.00,,,0.00,Rainwise IP-100,2014-12-27 12:32:00,
2014-12-27 07:38:00,35.2,32.0,30.17,SW,225,0.0,0.0,89,0.00,,,0.00,Rainwise IP-100,2014-12-27 12:38:00,
2014-12-27 07:43:00,35.3,32.0,30.18,NW,315,0.0,1.0,89,0.00,,,0.00,Rainwise IP-100,2014-12-27 12:43:00,
2014-12-27 07:48:00,35.3,32.0,30.18,West,270,2.0,2.0,89,0.00,,,0.00,Rainwise IP-100,2014-12-27 12:48:00,
2014-12-27 07:53:00,35.3,32.0,30.18,NNW,337,0.0,2.0,89,0.00,,,0.00,Rainwise IP-100,2014-12-27 12:53:00,
2014-12-27 07:58:00,35.4,32.0,30.19,NNW,337,0.0,2.0,88,0.00,,,0.00,Rainwise IP-100,2014-12-27 12:58:00,
2014-12-27 08:03:00,35.6,32.0,30.18,NNW,337,0.0,0.0,88,0.00,,,0.00,Rainwise IP-100,2014-12-27 13:03:00,
2014-12-27 08:08:00,35.7,33.0,30.18,NNW,337,0.0,0.0,89,0.00,,,0.00,Rainwise IP-100,2014-12-27 13:08:00,
2014-12-27 08:13:00,35.6,33.0,30.18,NNW,337,0.0,0.0,89,0.00,,,0.00,Rainwise IP-100,2014-12-27 13:13:00,
2014-12-27 08:19:00,35.6,33.0,30.18,NNW,337,0.0,0.0,89,0.00,,,0.00,Rainwise IP-100,2014-12-27 13:19:00,
2014-12-27 08:24:00,35.5,33.0,30.18,NNW,337,0.0,0.0,89,0.00,,,0.00,Rainwise IP-100,2014-12-27 13:24:00,
2014-12-27 08:29:00,35.5,33.0,30.18,NNW,337,0.0,0.0,90,0.00,,,0.00,Rainwise IP-100,2014-12-27 13:29:00,
2014-12-27 08:34:00,35.4,32.0,30.19,NNW,337,0.0,0.0,90,0.00,,,0.00,Rainwise IP-100,2014-12-27 13:34:00,
2014-12-27 08:39:00,35.5,33.0,30.19,NNW,337,0.0,0.0,90,0.00,,,0.00,Rainwise IP-100,2014-12-27 13:39:00,
2014-12-27 08:44:00,35.7,33.0,30.19,ENE,67,0.0,0.0,90,0.00,,,0.00,Rainwise IP-100,2014-12-27 13:44:00,
2014-12-27 08:49:00,35.9,33.0,30.19,North,360,0.0,2.0,89,0.00,,,0.00,Rainwise IP-100,2014-12-27 13:49:00,
2014-12-27 08:55:00,36.0,33.0,30.19,North,360,0.0,0.0,89,0.00,,,0.00,Rainwise IP-100,2014-12-27 13:55:00,
2014-12-27 09:00:00,36.2,32.0,30.19,North,360,0.0,0.0,88,0.00,,,0.00,Rainwise IP-100,2014-12-27 14:00:00,
2014-12-27 09:05:00,36.3,32.0,30.20,North,360,0.0,1.0,88,0.00,,,0.00,Rainwise IP-100,2014-12-27 14:05:00,
2014-12-27 09:10:00,36.5,33.0,30.20,NW,315,0.0,2.0,87,0.00,,,0.00,Rainwise IP-100,2014-12-27 14:10:00,
2014-12-27 09:15:00,36.7,33.0,30.20,North,360,0.0,2.0,86,0.00,,,0.00,Rainwise IP-100,2014-12-27 14:15:00,
2014-12-27 09:20:00,37.1,33.0,30.21,West,270,0.0,2.0,85,0.00,,,0.00,Rainwise IP-100,2014-12-27 14:20:00,
2014-12-27 09:25:00,37.2,33.0,30.21,West,270,0.0,2.0,86,0.00,,,0.00,Rainwise IP-100,2014-12-27 14:25:00,
2014-12-27 09:30:00,37.2,33.0,30.21,NNW,337,0.0,2.0,85,0.00,,,0.00,Rainwise IP-100,2014-12-27 14:30:00,
2014-12-27 09:36:00,37.3,33.0,30.21,NW,315,0.0,1.0,85,0.00,,,0.00,Rainwise IP-100,2014-12-27 14:36:00,
2014-12-27 09:41:00,37.3,33.0,30.21,NW,315,0.0,1.0,85,0.00,,,0.00,Rainwise IP-100,2014-12-27 14:41:00,
2014-12-27 09:46:00,37.3,33.0,30.22,West,270,0.0,1.0,85,0.00,,,0.00,Rainwise IP-100,2014-12-27 14:46:00,
2014-12-27 09:51:00,37.3,33.0,30.22,West,270,0.0,0.0,85,0.00,,,0.00,Rainwise IP-100,2014-12-27 14:51:00,
2014-12-27 09:56:00,37.4,33.0,30.21,West,270,0.0,0.0,85,0.00,,,0.00,Rainwise IP-100,2014-12-27 14:56:00,
2014-12-27 10:01:00,37.3,33.0,30.21,West,270,0.0,0.0,85,0.00,,,0.00,Rainwise IP-100,2014-12-27 15:01:00,
2014-12-27 10:06:00,37.3,33.0,30.21,West,270,0.0,0.0,85,0.00,,,0.00,Rainwise IP-100,2014-12-27 15:06:00,
2014-12-27 10:12:00,37.3,33.0,30.21,West,270,0.0,0.0,86,0.00,,,0.00,Rainwise IP-100,2014-12-27 15:12:00,
2014-12-27 10:17:00,37.3,33.0,30.21,West,270,0.0,0.0,86,0.00,,,0.00,Rainwise IP-100,2014-12-27 15:17:00,
2014-12-27 10:22:00,37.3,33.0,30.21,West,270,0.0,0.0,85,0.00,,,0.00,Rainwise IP-100,2014-12-27 15:22:00,
2014-12-27 10:27:00,37.3,33.0,30.21,West,270,0.0,0.0,86,0.00,,,0.00,Rainwise IP-100,2014-12-27 15:27:00,
2014-12-27 10:32:00,37.3,33.0,30.21,West,270,0.0,1.0,85,0.00,,,0.00,Rainwise IP-100,2014-12-27 15:32:00,
2014-12-27 10:37:00,37.4,33.0,30.22,West,270,0.0,2.0,85,0.00,,,0.00,Rainwise IP-100,2014-12-27 15:37:00,
2014-12-27 10:42:00,37.4,33.0,30.22,West,270,0.0,0.0,85,0.00,,,0.00,Rainwise IP-100,2014-12-27 15:42:00,
2014-12-27 10:47:00,37.4,33.0,30.22,West,270,0.0,0.0,85,0.00,,,0.00,Rainwise IP-100,2014-12-27 15:47:00,
2014-12-27 10:53:00,37.4,33.0,30.22,West,270,0.0,0.0,85,0.00,,,0.00,Rainwise IP-100,2014-12-27 15:53:00,
2014-12-27 10:58:00,37.5,35.0,30.22,West,270,0.0,2.0,85,0.00,,,0.00,Rainwise IP-100,2014-12-27 15:58:00,
2014-12-27 11:03:00,37.5,35.0,30.22,West,270,0.0,0.0,85,0.00,,,0.00,Rainwise IP-100,2014-12-27 16:03:00,
2014-12-27 11:08:00,37.5,35.0,30.21,West,270,0.0,0.0,85,0.00,,,0.00,Rainwise IP-100,2014-12-27 16:08:00,
2014-12-27 11:13:00,37.5,35.0,30.21,West,270,0.0,0.0,85,0.00,,,0.00,Rainwise IP-100,2014-12-27 16:13:00,
2014-12-27 11:18:00,37.5,35.0,30.21,West,270,0.0,0.0,85,0.00,,,0.00,Rainwise IP-100,2014-12-27 16:18:00,
2014-12-27 11:23:00,37.6,35.0,30.21,NNE,22,0.0,2.0,85,0.00,,,0.00,Rainwise IP-100,2014-12-27 16:23:00,
2014-12-27 11:29:00,37.7,35.0,30.21,NNW,337,0.0,0.0,85,0.00,,,0.00,Rainwise IP-100,2014-12-27 16:29:00,
2014-12-27 11:34:00,37.9,35.0,30.21,NNW,337,0.0,0.0,85,0.00,,,0.00,Rainwise IP-100,2014-12-27 16:34:00,
2014-12-27 11:39:00,38.2,35.0,30.20,NNW,337,0.0,0.0,85,0.00,,,0.00,Rainwise IP-100,2014-12-27 16:39:00,
2014-12-27 11:44:00,38.5,35.0,30.20,NNW,337,0.0,0.0,84,0.00,,,0.00,Rainwise IP-100,2014-12-27 16:44:00,
2014-12-27 11:49:00,38.8,35.0,30.20,NNW,337,0.0,0.0,84,0.00,,,0.00,Rainwise IP-100,2014-12-27 16:49:00,
2014-12-27 11:54:00,39.2,35.0,30.20,NNW,337,0.0,0.0,82,0.00,,,0.00,Rainwise IP-100,2014-12-27 16:54:00,
2014-12-27 11:59:00,39.6,35.0,30.20,WSW,247,1.0,2.0,81,0.00,,,0.00,Rainwise IP-100,2014-12-27 16:59:00,
2014-12-27 12:04:00,39.9,36.0,30.20,NW,315,0.0,2.0,82,0.00,,,0.00,Rainwise IP-100,2014-12-27 17:04:00,
2014-12-27 12:10:00,40.2,35.0,30.20,West,270,2.0,2.0,80,0.00,,,0.00,Rainwise IP-100,2014-12-27 17:10:00,
2014-12-27 12:15:00,40.4,35.0,30.19,West,270,0.0,2.0,80,0.00,,,0.00,Rainwise IP-100,2014-12-27 17:15:00,
2014-12-27 12:20:00,40.6,36.0,30.19,WSW,247,0.0,0.0,80,0.00,,,0.00,Rainwise IP-100,2014-12-27 17:20:00,
2014-12-27 12:25:00,40.8,36.0,30.19,WNW,292,0.0,2.0,82,0.00,,,0.00,Rainwise IP-100,2014-12-27 17:25:00,
2014-12-27 12:30:00,41.1,36.0,30.18,SE,135,0.0,2.0,81,0.00,,,0.00,Rainwise IP-100,2014-12-27 17:30:00,
2014-12-27 12:35:00,41.5,36.0,30.17,SSW,202,0.0,2.0,79,0.00,,,0.00,Rainwise IP-100,2014-12-27 17:35:00,
2014-12-27 12:40:00,42.5,37.0,30.17,South,180,0.0,2.0,78,0.00,,,0.00,Rainwise IP-100,2014-12-27 17:40:00,
2014-12-27 12:46:00,43.6,38.0,30.18,SSE,157,1.0,2.0,78,0.00,,,0.00,Rainwise IP-100,2014-12-27 17:46:00,
2014-12-27 12:51:00,43.9,37.0,30.18,WSW,247,1.0,3.0,75,0.00,,,0.00,Rainwise IP-100,2014-12-27 17:51:00,
2014-12-27 12:56:00,44.2,37.0,30.18,SW,225,2.0,2.0,75,0.00,,,0.00,Rainwise IP-100,2014-12-27 17:56:00,
2014-12-27 13:01:00,44.7,37.0,30.18,SE,135,0.0,4.0,74,0.00,,,0.00,Rainwise IP-100,2014-12-27 18:01:00,
2014-12-27 13:06:00,44.9,37.0,30.18,NE,45,1.0,4.0,74,0.00,,,0.00,Rainwise IP-100,2014-12-27 18:06:00,
2014-12-27 13:11:00,45.6,37.0,30.18,West,270,3.0,5.0,72,0.00,,,0.00,Rainwise IP-100,2014-12-27 18:11:00,
2014-12-27 13:16:00,45.5,38.0,30.18,SW,225,1.0,4.0,73,0.00,,,0.00,Rainwise IP-100,2014-12-27 18:16:00,
2014-12-27 13:21:00,45.8,38.0,30.18,SW,225,1.0,3.0,73,0.00,,,0.00,Rainwise IP-100,2014-12-27 18:21:00,
2014-12-27 13:27:00,46.1,37.0,30.18,NW,315,0.0,3.0,71,0.00,,,0.00,Rainwise IP-100,2014-12-27 18:27:00,
2014-12-27 13:32:00,46.4,37.0,30.18,SSE,157,1.0,4.0,72,0.00,,,0.00,Rainwise IP-100,2014-12-27 18:32:00,
2014-12-27 13:37:00,46.8,37.0,30.18,West,270,2.0,3.0,69,0.00,,,0.00,Rainwise IP-100,2014-12-27 18:37:00,
2014-12-27 13:42:00,46.7,37.0,30.18,SW,225,2.0,6.0,70,0.00,,,0.00,Rainwise IP-100,2014-12-27 18:42:00,
2014-12-27 13:47:00,46.4,37.0,30.18,South,180,0.0,4.0,71,0.00,,,0.00,Rainwise IP-100,2014-12-27 18:47:00,
2014-12-27 13:52:00,46.3,37.0,30.18,SW,225,2.0,2.0,71,0.00,,,0.00,Rainwise IP-100,2014-12-27 18:52:00,
2014-12-27 13:57:00,46.4,37.0,30.18,NNE,22,2.0,2.0,71,0.00,,,0.00,Rainwise IP-100,2014-12-27 18:57:00,
2014-12-27 14:03:00,47.2,37.0,30.18,WSW,247,2.0,2.0,69,0.00,,,0.00,Rainwise IP-100,2014-12-27 19:03:00,
2014-12-27 14:08:00,46.8,37.0,30.19,North,360,2.0,4.0,70,0.00,,,0.00,Rainwise IP-100,2014-12-27 19:08:00,
2014-12-27 14:13:00,46.7,37.0,30.19,NW,315,0.0,2.0,70,0.00,,,0.00,Rainwise IP-100,2014-12-27 19:13:00,
2014-12-27 14:18:00,46.3,38.0,30.19,West,270,0.0,1.0,73,0.00,,,0.00,Rainwise IP-100,2014-12-27 19:18:00,
2014-12-27 14:23:00,45.6,38.0,30.19,East,90,1.0,4.0,73,0.00,,,0.00,Rainwise IP-100,2014-12-27 19:23:00,
2014-12-27 14:28:00,45.2,37.0,30.19,ENE,67,1.0,3.0,74,0.00,,,0.00,Rainwise IP-100,2014-12-27 19:28:00,
2014-12-27 14:33:00,44.9,38.0,30.18,East,90,1.0,2.0,75,0.00,,,0.00,Rainwise IP-100,2014-12-27 19:33:00,
2014-12-27 14:38:00,44.7,38.0,30.18,SE,135,0.0,2.0,76,0.00,,,0.00,Rainwise IP-100,2014-12-27 19:38:00,
2014-12-27 14:44:00,44.7,38.0,30.17,SE,135,0.0,0.0,76,0.00,,,0.00,Rainwise IP-100,2014-12-27 19:44:00,
2014-12-27 14:49:00,44.7,38.0,30.17,SSE,157,2.0,2.0,75,0.00,,,0.00,Rainwise IP-100,2014-12-27 19:49:00,
2014-12-27 14:54:00,44.6,38.0,30.16,SSE,157,0.0,2.0,76,0.00,,,0.00,Rainwise IP-100,2014-12-27 19:54:00,
2014-12-27 14:59:00,44.5,38.0,30.16,SW,225,0.0,2.0,76,0.00,,,0.00,Rainwise IP-100,2014-12-27 19:59:00,
2014-12-27 15:04:00,44.5,38.0,30.16,West,270,0.0,2.0,77,0.00,,,0.00,Rainwise IP-100,2014-12-27 20:04:00,
2014-12-27 15:09:00,44.5,38.0,30.16,ENE,67,0.0,2.0,77,0.00,,,0.00,Rainwise IP-100,2014-12-27 20:09:00,
2014-12-27 15:14:00,44.4,37.0,30.15,SE,135,1.0,2.0,77,0.00,,,0.00,Rainwise IP-100,2014-12-27 20:14:00,
2014-12-27 15:20:00,44.4,37.0,30.15,SW,225,1.0,3.0,77,0.00,,,0.00,Rainwise IP-100,2014-12-27 20:20:00,
2014-12-27 15:25:00,44.3,37.0,30.14,SSE,157,0.0,2.0,77,0.00,,,0.00,Rainwise IP-100,2014-12-27 20:25:00,
2014-12-27 15:30:00,44.2,38.0,30.14,SE,135,1.0,2.0,78,0.00,,,0.00,Rainwise IP-100,2014-12-27 20:30:00,
2014-12-27 15:35:00,44.1,38.0,30.14,SE,135,0.0,1.0,78,0.00,,,0.00,Rainwise IP-100,2014-12-27 20:35:00,
2014-12-27 15:40:00,43.9,38.0,30.14,SE,135,0.0,0.0,78,0.00,,,0.00,Rainwise IP-100,2014-12-27 20:40:00,
2014-12-27 15:45:00,43.5,38.0,30.14,SE,135,0.0,2.0,78,0.00,,,0.00,Rainwise IP-100,2014-12-27 20:45:00,
2014-12-27 15:50:00,42.9,37.0,30.14,ESE,112,2.0,2.0,80,0.00,,,0.00,Rainwise IP-100,2014-12-27 20:50:00,
2014-12-27 15:55:00,42.7,37.0,30.14,ESE,112,0.0,2.0,80,0.00,,,0.00,Rainwise IP-100,2014-12-27 20:55:00,
2014-12-27 16:01:00,42.4,37.0,30.13,East,90,1.0,2.0,81,0.00,,,0.00,Rainwise IP-100,2014-12-27 21:01:00,
2014-12-27 16:06:00,42.0,37.0,30.12,East,90,1.0,2.0,82,0.00,,,0.00,Rainwise IP-100,2014-12-27 21:06:00,
2014-12-27 16:11:00,41.5,37.0,30.12,East,90,2.0,2.0,83,0.00,,,0.00,Rainwise IP-100,2014-12-27 21:11:00,
2014-12-27 16:16:00,40.9,37.0,30.12,East,90,1.0,2.0,85,0.00,,,0.00,Rainwise IP-100,2014-12-27 21:16:00,
2014-12-27 16:21:00,40.5,37.0,30.12,East,90,1.0,2.0,86,0.00,,,0.00,Rainwise IP-100,2014-12-27 21:21:00,
2014-12-27 16:26:00,40.2,37.0,30.11,East,90,2.0,2.0,87,0.00,,,0.00,Rainwise IP-100,2014-12-27 21:26:00,
2014-12-27 16:31:00,40.2,37.0,30.11,East,90,1.0,2.0,87,0.00,,,0.00,Rainwise IP-100,2014-12-27 21:31:00,
2014-12-27 16:37:00,40.2,37.0,30.11,ENE,67,0.0,2.0,87,0.00,,,0.00,Rainwise IP-100,2014-12-27 21:37:00,
2014-12-27 16:42:00,39.8,37.0,30.12,ENE,67,0.0,2.0,87,0.00,,,0.00,Rainwise IP-100,2014-12-27 21:42:00,
2014-12-27 16:47:00,39.8,37.0,30.12,ENE,67,1.0,2.0,88,0.00,,,0.00,Rainwise IP-100,2014-12-27 21:47:00,
2014-12-27 16:52:00,39.7,37.0,30.12,ENE,67,0.0,2.0,87,0.00,,,0.00,Rainwise IP-100,2014-12-27 21:52:00,
2014-12-27 16:57:00,39.6,37.0,30.12,ENE,67,1.0,2.0,88,0.00,,,0.00,Rainwise IP-100,2014-12-27 21:57:00,
2014-12-27 17:02:00,39.5,37.0,30.11,ENE,67,0.0,2.0,88,0.00,,,0.00,Rainwise IP-100,2014-12-27 22:02:00,
2014-12-27 17:07:00,39.2,36.0,30.11,SE,135,0.0,2.0,88,0.00,,,0.00,Rainwise IP-100,2014-12-27 22:07:00,
2014-12-27 17:12:00,38.5,36.0,30.10,SE,135,0.0,2.0,89,0.00,,,0.00,Rainwise IP-100,2014-12-27 22:12:00,
2014-12-27 17:18:00,37.7,36.0,30.10,SE,135,0.0,2.0,90,0.00,,,0.00,Rainwise IP-100,2014-12-27 22:18:00,
2014-12-27 17:23:00,37.3,35.0,30.10,SE,135,0.0,0.0,92,0.00,,,0.00,Rainwise IP-100,2014-12-27 22:23:00,
2014-12-27 17:28:00,37.1,35.0,30.10,SE,135,0.0,0.0,92,0.00,,,0.00,Rainwise IP-100,2014-12-27 22:28:00,
2014-12-27 17:33:00,36.9,35.0,30.10,SE,135,0.0,0.0,92,0.00,,,0.00,Rainwise IP-100,2014-12-27 22:33:00,
2014-12-27 17:38:00,37.2,35.0,30.10,SE,135,0.0,1.0,93,0.00,,,0.00,Rainwise IP-100,2014-12-27 22:38:00,
2014-12-27 17:43:00,37.8,36.0,30.10,SE,135,0.0,0.0,93,0.00,,,0.00,Rainwise IP-100,2014-12-27 22:43:00,
2014-12-27 17:48:00,37.9,36.0,30.10,SE,135,0.0,0.0,91,0.00,,,0.00,Rainwise IP-100,2014-12-27 22:48:00,
2014-12-27 17:54:00,37.8,36.0,30.10,SE,135,0.0,0.0,91,0.00,,,0.00,Rainwise IP-100,2014-12-27 22:54:00,
2014-12-27 17:59:00,37.3,35.0,30.10,SE,135,0.0,0.0,91,0.00,,,0.00,Rainwise IP-100,2014-12-27 22:59:00,
2014-12-27 18:04:00,36.8,35.0,30.10,SE,135,0.0,0.0,91,0.00,,,0.00,Rainwise IP-100,2014-12-27 23:04:00,
2014-12-27 18:09:00,35.9,33.0,30.10,SE,135,0.0,0.0,91,0.00,,,0.00,Rainwise IP-100,2014-12-27 23:09:00,
2014-12-27 18:14:00,35.3,32.0,30.10,SE,135,0.0,0.0,92,0.00,,,0.00,Rainwise IP-100,2014-12-27 23:14:00,
2014-12-27 18:19:00,35.2,33.0,30.10,SE,135,0.0,0.0,94,0.00,,,0.00,Rainwise IP-100,2014-12-27 23:19:00,
2014-12-27 18:24:00,35.5,35.0,30.10,SE,135,0.0,0.0,95,0.00,,,0.00,Rainwise IP-100,2014-12-27 23:24:00,
2014-12-27 18:29:00,36.3,35.0,30.09,SE,135,0.0,0.0,95,0.00,,,0.00,Rainwise IP-100,2014-12-27 23:29:00,
2014-12-27 18:35:00,36.4,35.0,30.10,SE,135,0.0,0.0,95,0.00,,,0.00,Rainwise IP-100,2014-12-27 23:35:00,
2014-12-27 18:40:00,37.7,37.0,30.09,East,90,1.0,2.0,95,0.00,,,0.00,Rainwise IP-100,2014-12-27 23:40:00,
2014-12-27 18:45:00,37.9,36.0,30.09,East,90,0.0,2.0,92,0.00,,,0.00,Rainwise IP-100,2014-12-27 23:45:00,
2014-12-27 18:50:00,37.0,35.0,30.09,ESE,112,1.0,2.0,92,0.00,,,0.00,Rainwise IP-100,2014-12-27 23:50:00,
2014-12-27 18:55:00,36.4,35.0,30.08,ESE,112,0.0,2.0,94,0.00,,,0.00,Rainwise IP-100,2014-12-27 23:55:00,
2014-12-27 19:00:00,36.6,36.0,30.08,ESE,112,0.0,0.0,95,0.00,,,0.00,Rainwise IP-100,2014-12-28 00:00:00,
2014-12-27 19:05:00,37.7,37.0,30.08,ESE,112,0.0,0.0,95,0.00,,,0.00,Rainwise IP-100,2014-12-28 00:05:00,
2014-12-27 19:11:00,38.5,38.0,30.09,ESE,112,0.0,0.0,94,0.00,,,0.00,Rainwise IP-100,2014-12-28 00:11:00,
2014-12-27 19:16:00,38.5,37.0,30.09,East,90,0.0,2.0,93,0.00,,,0.00,Rainwise IP-100,2014-12-28 00:16:00,
2014-12-27 19:21:00,37.8,36.0,30.07,East,90,0.0,1.0,91,0.00,,,0.00,Rainwise IP-100,2014-12-28 00:21:00,
2014-12-27 19:26:00,36.8,36.0,30.06,East,90,1.0,2.0,95,0.00,,,0.00,Rainwise IP-100,2014-12-28 00:26:00,
2014-12-27 19:31:00,36.7,36.0,30.06,East,90,1.0,2.0,95,0.00,,,0.00,Rainwise IP-100,2014-12-28 00:31:00,
2014-12-27 19:36:00,36.9,36.0,30.06,East,90,2.0,2.0,95,0.00,,,0.00,Rainwise IP-100,2014-12-28 00:36:00,
2014-12-27 19:41:00,37.5,37.0,30.06,East,90,1.0,2.0,95,0.00,,,0.00,Rainwise IP-100,2014-12-28 00:41:00,
2014-12-27 19:46:00,38.3,37.0,30.06,ENE,67,1.0,2.0,94,0.00,,,0.00,Rainwise IP-100,2014-12-28 00:46:00,
2014-12-27 19:52:00,38.9,37.0,30.06,ENE,67,2.0,2.0,92,0.00,,,0.00,Rainwise IP-100,2014-12-28 00:52:00,
2014-12-27 19:57:00,38.8,37.0,30.06,ENE,67,2.0,2.0,91,0.00,,,0.00,Rainwise IP-100,2014-12-28 00:57:00,
2014-12-27 20:02:00,38.3,36.0,30.06,ENE,67,2.0,2.0,92,0.00,,,0.00,Rainwise IP-100,2014-12-28 01:02:00,
2014-12-27 20:07:00,38.4,36.0,30.05,East,90,2.0,3.0,92,0.00,,,0.00,Rainwise IP-100,2014-12-28 01:07:00,
2014-12-27 20:12:00,38.3,36.0,30.05,East,90,1.0,2.0,92,0.00,,,0.00,Rainwise IP-100,2014-12-28 01:12:00,
2014-12-27 20:17:00,38.1,36.0,30.05,East,90,2.0,2.0,92,0.00,,,0.00,Rainwise IP-100,2014-12-28 01:17:00,
2014-12-27 20:22:00,37.9,36.0,30.05,East,90,0.0,2.0,91,0.00,,,0.00,Rainwise IP-100,2014-12-28 01:22:00,
2014-12-27 20:28:00,37.9,36.0,30.04,East,90,1.0,2.0,92,0.00,,,0.00,Rainwise IP-100,2014-12-28 01:28:00,
2014-12-27 20:33:00,38.0,36.0,30.05,East,90,0.0,2.0,93,0.00,,,0.00,Rainwise IP-100,2014-12-28 01:33:00,
2014-12-27 20:38:00,38.2,36.0,30.05,East,90,0.0,0.0,92,0.00,,,0.00,Rainwise IP-100,2014-12-28 01:38:00,
2014-12-27 20:43:00,38.4,36.0,30.04,East,90,0.0,0.0,92,0.00,,,0.00,Rainwise IP-100,2014-12-28 01:43:00,
2014-12-27 20:48:00,38.5,37.0,30.05,East,90,0.0,0.0,92,0.00,,,0.00,Rainwise IP-100,2014-12-28 01:48:00,
2014-12-27 20:53:00,38.6,37.0,30.04,East,90,0.0,0.0,91,0.00,,,0.00,Rainwise IP-100,2014-12-28 01:53:00,
2014-12-27 20:58:00,38.7,37.0,30.04,East,90,0.0,0.0,91,0.00,,,0.00,Rainwise IP-100,2014-12-28 01:58:00,
2014-12-27 21:03:00,38.9,37.0,30.04,East,90,0.0,2.0,91,0.00,,,0.00,Rainwise IP-100,2014-12-28 02:03:00,
2014-12-27 21:09:00,39.2,37.0,30.03,East,90,0.0,2.0,90,0.00,,,0.00,Rainwise IP-100,2014-12-28 02:09:00,
2014-12-27 21:14:00,39.5,38.0,30.03,East,90,0.0,0.0,90,0.00,,,0.00,Rainwise IP-100,2014-12-28 02:14:00,
2014-12-27 21:19:00,39.6,37.0,30.03,East,90,0.0,1.0,89,0.00,,,0.00,Rainwise IP-100,2014-12-28 02:19:00,
2014-12-27 21:24:00,39.7,37.0,30.02,East,90,0.0,2.0,89,0.00,,,0.00,Rainwise IP-100,2014-12-28 02:24:00,
2014-12-27 21:29:00,39.7,37.0,30.03,East,90,0.0,0.0,89,0.00,,,0.00,Rainwise IP-100,2014-12-28 02:29:00,
2014-12-27 21:34:00,39.7,37.0,30.03,East,90,0.0,0.0,89,0.00,,,0.00,Rainwise IP-100,2014-12-28 02:34:00,
2014-12-27 21:39:00,39.6,37.0,30.03,East,90,0.0,0.0,89,0.00,,,0.00,Rainwise IP-100,2014-12-28 02:39:00,
2014-12-27 21:45:00,39.1,37.0,30.03,East,90,0.0,1.0,90,0.00,,,0.00,Rainwise IP-100,2014-12-28 02:45:00,